1485140400.62,42965,9.63,73940.5,-7.57,-39.29,-39.53,0,*54
1485140401.87,42966,9.63,73946.5,-7.55,-39.41,-39.47,0,*5E
1485140403.16,42967,9.63,73946.5,-7.55,-39.23,-39.29,0,*53
1485140404.41,42968,9.63,73944.5,-7.57,-39.23,-39.35,0,*53
1485140405.69,42969,9.63,73940.3,-7.55,-39.29,-39.41,0,*59
1485140406.95,42970,9.63,73944.8,-7.57,-39.03,-39.09,0,*57
1485140408.24,42971,9.63,73944.3,-7.55,-39.15,-39.29,0,*51
1485140409.49,42972,9.63,73940.3,-7.55,-39.29,-39.47,0,*55
1485140410.74,42973,9.63,73946.5,-7.55,-39.29,-39.47,0,*54
1485140412.02,42974,9.63,73944.3,-7.57,-39.23,-39.53,0,*5E
1485140413.3,42975,9.63,73944.0,-7.55,-39.23,-39.41,0,*5E
1485140414.58,42976,9.63,73942.5,-7.55,-39.03,-39.29,0,*51
1485140415.87,42977,9.63,73944.0,-7.55,-39.15,-39.29,0,*57
1485140417.16,42978,9.63,73944.0,-7.55,-39.15,-39.29,0,*58
1485140418.41,42979,9.63,73940.8,-7.57,-39.29,-39.35,0,*59
1485140419.7,42980,9.63,73944.8,-7.55,-39.03,-39.23,0,*52
1485140420.96,42981,9.63,73946.3,-7.57,-39.09,-39.29,0,*51
1485140422.25,42982,9.63,73946.5,-7.55,-39.15,-39.29,0,*5D
1485140423.51,42983,9.63,73942.8,-7.53,-39.15,-39.41,0,*54
1485140424.76,42984,9.63,73940.5,-7.57,-39.23,-39.35,0,*51
1485140426.04,42985,9.63,73944.5,-7.55,-39.03,-39.23,0,*57
1485140427.29,42986,9.63,73944.5,-7.55,-38.97,-39.23,0,*58
1485140428.58,42987,9.63,73946.5,-7.55,-39.23,-39.41,0,*53
1485140429.87,42988,9.63,73946.3,-7.55,-39.15,-39.15,0,*58
1485140431.12,42989,9.63,73946.0,-7.55,-38.97,-39.03,0,*55
1485140432.41,42990,9.63,73944.5,-7.55,-39.15,-39.29,0,*5E
1485140433.69,42991,9.63,73944.5,-7.55,-39.29,-39.41,0,*5E
1485140434.95,42992,9.63,73948.0,-7.53,-39.23,-39.41,0,*51
1485140436.2,42993,9.63,73944.8,-7.53,-39.23,-39.29,0,*5E
1485140437.46,42994,9.63,73944.8,-7.53,-39.23,-39.29,0,*59
1485140438.72,42995,9.63,73946.5,-7.53,-39.15,-39.23,0,*57
1485140439.98,42996,9.63,73946.0,-7.53,-39.03,-39.29,0,*59
1485140441.24,42997,9.63,73944.8,-7.53,-39.15,-39.23,0,*55
1485140442.5,42998,9.63,73944.8,-7.53,-39.23,-39.41,0,*5B
1485140443.74,42999,9.63,73944.5,-7.53,-39.47,-39.59,0,*51
1485140445.0,43000,9.63,73944.3,-7.53,-39.41,-39.59,0,*5F
1485140446.25,43001,9.63,73946.8,-7.53,-39.59,-39.65,0,*58
1485140447.5,43002,9.63,73946.5,-7.53,-39.29,-39.41,0,*5A
1485140448.76,43003,9.63,73948.3,-7.53,-39.29,-39.59,0,*52
1485140449.97,43004,9.63,73944.5,-7.53,-39.47,-39.65,0,*52
1485140451.21,43005,9.63,73946.3,-7.53,-39.65,-39.79,0,*5E
1485140452.48,43006,9.63,73946.5,-7.53,-39.41,-39.59,0,*59
1485140453.7,43007,9.63,73946.8,-7.53,-39.29,-39.47,0,*59
1485140454.99,43008,9.63,73944.3,-7.55,-39.41,-39.59,0,*51
1485140456.25,43009,9.63,73944.8,-7.55,-38.97,-39.03,0,*55
1485140457.5,43010,9.63,73942.5,-7.55,-39.29,-39.47,0,*59
1485140458.72,43011,9.63,73948.3,-7.53,-39.29,-39.47,0,*5E
1485140459.94,43012,9.63,73944.8,-7.53,-39.47,-39.65,0,*55
1485140461.21,43013,9.63,73944.8,-7.55,-39.47,-39.59,0,*5D
1485140462.48,43014,9.63,73946.8,-7.55,-39.59,-39.65,0,*5A
1485140463.75,43015,9.63,73944.5,-7.55,-39.47,-39.59,0,*5B
1485140465.04,43016,9.63,73946.0,-7.55,-39.41,-39.59,0,*5E
1485140466.33,43017,9.63,73948.3,-7.55,-39.41,-39.59,0,*5F
1485140467.6,43018,9.63,73950.5,-7.55,-39.59,-39.65,0,*56
1485140468.86,43019,9.63,73944.5,-7.57,-39.65,-39.71,0,*5F
1485140470.13,43020,9.63,73948.0,-7.55,-39.41,-39.65,0,*54
1485140471.37,43021,9.63,73944.0,-7.55,-39.47,-39.65,0,*53
1485140472.64,43022,9.63,73950.3,-7.55,-39.59,-39.65,0,*5F
1485140473.88,43023,9.63,73946.3,-7.57,-39.47,-39.65,0,*53
1485140475.14,43024,9.63,73946.3,-7.57,-39.47,-39.53,0,*51
1485140476.38,43025,9.63,73942.5,-7.55,-39.47,-39.65,0,*57
1485140477.64,43026,9.63,73946.8,-7.57,-39.85,-39.71,0,*5D
1485140478.87,43027,9.63,73944.3,-7.57,-39.85,-39.85,0,*57
1485140480.13,43028,9.63,73946.8,-7.57,-39.53,-39.65,0,*5D
1485140481.39,43029,9.63,73946.5,-7.57,-39.47,-39.53,0,*5C
1485140482.64,43030,9.63,73946.3,-7.55,-39.41,-39.47,0,*55
1485140483.9,43031,9.63,73944.3,-7.55,-39.29,-39.47,0,*5A
1485140485.15,43032,9.63,73946.3,-7.55,-39.23,-39.47,0,*53
1485140486.39,43033,9.63,73946.3,-7.57,-39.47,-39.65,0,*52
1485140487.65,43034,9.63,73950.0,-7.57,-39.47,-39.71,0,*50
1485140488.88,43035,9.63,73946.0,-7.57,-39.65,-39.85,0,*5A
1485140490.14,43036,9.63,73944.5,-7.57,-39.47,-39.71,0,*52
1485140491.39,43037,9.63,73950.3,-7.57,-39.23,-39.47,0,*54
1485140492.65,43038,9.63,73944.5,-7.57,-39.47,-39.53,0,*5C
1485140493.91,43039,9.63,73946.3,-7.57,-39.53,-39.65,0,*5D
1485140495.17,43040,9.63,73950.3,-7.57,-39.65,-39.71,0,*53
1485140496.41,43041,9.63,73950.8,-7.57,-39.85,-39.91,0,*52
1485140497.64,43042,9.63,73946.8,-7.57,-39.65,-39.85,0,*5A
1485140498.9,43043,9.63,73948.3,-7.57,-39.71,-39.91,0,*5B
1485140500.11,43044,9.63,73950.0,-7.59,-39.65,-39.85,0,*52
1485140501.35,43045,9.63,73950.3,-7.59,-39.53,-39.65,0,*58
1485140502.64,43046,9.63,73946.8,-7.61,-39.59,-39.71,0,*5F
1485140503.9,43047,9.63,73946.8,-7.57,-39.09,-39.29,0,*53
1485140505.18,43048,9.63,73948.8,-7.57,-38.91,-38.91,0,*5E
1485140506.44,43049,9.63,73950.8,-7.57,-39.09,-39.29,0,*5D
1485140507.69,43050,9.63,73948.0,-7.57,-39.29,-39.35,0,*5A
1485140508.94,43051,9.63,73944.5,-7.57,-39.29,-39.47,0,*5E
1485140510.21,43052,9.63,73948.0,-7.57,-39.29,-39.53,0,*58
1485140511.45,43053,9.63,73948.5,-7.57,-39.35,-39.65,0,*51
1485140512.73,43054,9.63,73950.8,-7.55,-39.23,-39.29,0,*5B
1485140514.01,43055,9.63,73946.3,-7.57,-39.03,-39.23,0,*50
1485140515.27,43056,9.63,73950.0,-7.57,-39.03,-39.09,0,*5B
1485140516.55,43057,9.63,73946.3,-7.55,-39.03,-39.23,0,*50
1485140517.83,43058,9.63,73946.3,-7.57,-39.29,-39.29,0,*5F
1485140519.08,43059,9.63,73950.3,-7.57,-39.23,-39.47,0,*5C
1485140520.36,43060,9.63,73944.3,-7.57,-39.23,-39.29,0,*5E
1485140521.61,43061,9.63,73948.8,-7.57,-39.35,-39.53,0,*55
1485140522.85,43062,9.63,73944.0,-7.57,-39.47,-39.65,0,*56
1485140524.14,43063,9.63,73944.3,-7.55,-39.15,-39.23,0,*50
1485140525.42,43064,9.63,73948.8,-7.55,-39.03,-39.15,0,*55
1485140526.67,43065,9.63,73946.3,-7.57,-39.29,-39.35,0,*5C
1485140527.95,43066,9.63,73944.3,-7.57,-39.53,-39.71,0,*52
1485140529.23,43067,9.63,73946.3,-7.55,-39.59,-39.65,0,*5E
1485140530.47,43068,9.63,73944.5,-7.57,-39.47,-39.65,0,*5C
1485140531.7,43069,9.63,73948.8,-7.57,-39.47,-39.65,0,*5D
1485140532.96,43070,9.63,73944.8,-7.57,-39.53,-39.65,0,*50
1485140534.19,43071,9.63,73944.8,-7.57,-39.47,-39.47,0,*54
1485140535.45,43072,9.63,73948.0,-7.55,-39.15,-39.35,0,*57
1485140536.71,43073,9.63,73948.0,-7.57,-39.03,-39.09,0,*5C
1485140538.0,43074,9.63,73948.5,-7.55,-39.15,-39.29,0,*5C
1485140539.26,43075,9.63,73946.3,-7.57,-39.65,-39.71,0,*55
1485140540.55,43076,9.63,73944.5,-7.55,-39.41,-39.59,0,*58
1485140541.82,43077,9.63,73944.8,-7.55,-39.41,-39.65,0,*56
1485140543.08,43078,9.63,73948.0,-7.57,-39.65,-39.71,0,*58
1485140544.36,43079,9.63,73944.3,-7.57,-39.53,-39.71,0,*5C
1485140545.64,43080,9.63,73946.5,-7.55,-39.29,-39.41,0,*56
1485140546.89,43081,9.63,73946.0,-7.57,-39.35,-39.53,0,*5B
1485140548.15,43082,9.63,73942.0,-7.57,-39.47,-39.59,0,*57
1485140549.43,43083,9.63,73942.3,-7.55,-39.29,-39.41,0,*55
1485140550.71,43084,9.63,73942.8,-7.55,-39.29,-39.29,0,*5C
1485140551.96,43085,9.63,73946.5,-7.55,-39.47,-39.65,0,*5D
1485140553.19,43086,9.63,73946.3,-7.57,-39.47,-39.35,0,*59
1485140554.46,43087,9.63,73946.3,-7.57,-39.23,-39.29,0,*57
1485140555.71,43088,9.63,73944.0,-7.57,-39.29,-39.35,0,*5F
1485140556.97,43089,9.63,73942.5,-7.55,-39.41,-39.47,0,*57
1485140558.25,43090,9.63,73940.5,-7.55,-39.23,-39.41,0,*5D
1485140559.49,43091,9.63,73940.0,-7.57,-39.47,-39.65,0,*5A
1485140560.77,43092,9.63,73942.8,-7.57,-39.53,-39.71,0,*59
1485140562.05,43093,9.63,73942.5,-7.57,-39.23,-39.29,0,*52
1485140563.31,43094,9.63,73946.3,-7.55,-39.41,-39.47,0,*5B
1485140564.56,43095,9.63,73940.5,-7.57,-39.23,-39.47,0,*5C
1485140565.83,43096,9.63,73942.0,-7.57,-39.29,-39.53,0,*50
1485140567.1,43097,9.63,73940.3,-7.55,-39.41,-39.65,0,*58
1485140568.35,43098,9.63,73946.5,-7.57,-39.41,-39.47,0,*55
1485140569.64,43099,9.63,73940.0,-7.55,-39.41,-39.59,0,*59
1485140570.9,43100,9.63,73944.0,-7.57,-39.53,-39.65,0,*56
1485140572.16,43101,9.63,73940.3,-7.55,-39.41,-39.65,0,*56
1485140573.41,43102,9.63,73944.0,-7.57,-39.29,-39.47,0,*59
1485140574.67,43103,9.63,73942.0,-7.57,-39.23,-39.09,0,*58
1485140575.96,43104,9.63,73944.5,-7.55,-39.03,-39.15,0,*52
1485140577.24,43105,9.63,73946.0,-7.55,-39.23,-39.29,0,*5E
1485140578.47,43106,9.63,73946.0,-7.57,-39.35,-39.47,0,*50
1485140579.75,43107,9.63,73946.5,-7.55,-39.23,-39.29,0,*5C
1485140581.04,43108,9.63,73944.8,-7.55,-39.29,-39.59,0,*5E
1485140582.32,43109,9.63,73942.3,-7.55,-39.29,-39.41,0,*56
1485140583.59,43110,9.63,73944.3,-7.55,-39.41,-39.65,0,*56
1485140584.83,43111,9.63,73946.3,-7.57,-39.29,-39.35,0,*5E
1485140586.08,43112,9.63,73946.3,-7.57,-39.29,-39.35,0,*5D
1485140587.37,43113,9.63,73946.0,-7.55,-39.41,-39.59,0,*5A
1485140588.61,43114,9.63,73944.0,-7.55,-39.47,-39.65,0,*54
1485140589.9,43115,9.63,73944.8,-7.55,-39.29,-39.59,0,*52
1485140591.16,43116,9.63,73944.5,-7.57,-39.65,-39.71,0,*51
1485140592.41,43117,9.63,73950.5,-7.55,-39.29,-39.47,0,*5F
1485140593.7,43118,9.63,73944.3,-7.55,-39.23,-39.41,0,*5C
1485140594.95,43119,9.63,73944.3,-7.57,-39.47,-39.53,0,*5E
1485140596.23,43120,9.63,73948.8,-7.57,-39.23,-39.29,0,*5B
1485140597.48,43121,9.63,73944.3,-7.55,-39.29,-39.47,0,*5A
1485140598.71,43122,9.63,73946.8,-7.55,-38.97,-38.97,0,*51
1485140600.0,43123,9.63,73944.0,-7.55,-39.15,-39.29,0,*5F
1485140601.25,43124,9.63,73950.3,-7.57,-39.23,-39.47,0,*57
1485140602.49,43125,9.63,73946.8,-7.57,-39.47,-39.65,0,*54
1485140603.75,43126,9.63,73946.0,-7.55,-39.23,-39.47,0,*57
1485140605.03,43127,9.63,73946.0,-7.55,-39.23,-39.41,0,*50
1485140606.32,43128,9.63,73942.3,-7.55,-39.41,-39.59,0,*52
1485140607.57,43129,9.63,73940.3,-7.57,-39.47,-39.53,0,*5D
1485140608.8,43130,9.63,73940.3,-7.57,-39.35,-39.47,0,*55
1485140610.08,43131,9.63,73940.5,-7.55,-39.03,-39.23,0,*51
1485140611.33,43132,9.63,73942.8,-7.57,-39.29,-39.35,0,*5F
1485140612.61,43133,9.63,73942.3,-7.55,-39.23,-39.29,0,*5B
1485140613.89,43134,9.63,73940.5,-7.55,-39.23,-39.29,0,*5C
1485140615.18,43135,9.63,73940.3,-7.55,-39.15,-39.23,0,*52
1485140616.47,43136,9.63,73940.0,-7.55,-39.15,-39.29,0,*5B
1485140617.76,43137,9.63,73942.3,-7.55,-39.03,-39.23,0,*57
1485140619.01,43138,9.63,73944.8,-7.55,-39.23,-39.47,0,*58
1485140620.27,43139,9.63,73942.0,-7.55,-39.29,-39.47,0,*53
1485140621.55,43140,9.63,73946.5,-7.55,-39.41,-39.59,0,*5C
1485140622.81,43141,9.63,73946.3,-7.55,-39.29,-39.47,0,*5C
1485140624.1,43142,9.63,73946.5,-7.55,-39.41,-39.59,0,*5E
1485140625.35,43143,9.63,73946.0,-7.55,-39.29,-39.47,0,*5E
1485140626.63,43144,9.63,73946.3,-7.55,-39.29,-39.29,0,*51
1485140627.88,43145,9.63,73946.8,-7.55,-39.29,-39.47,0,*58
1485140629.14,43146,9.63,73944.3,-7.55,-39.29,-39.47,0,*5B
1485140630.43,43147,9.63,73942.5,-7.55,-39.41,-39.59,0,*5B
1485140631.68,43148,9.63,73946.0,-7.55,-39.29,-39.47,0,*55
1485140632.96,43149,9.63,73944.3,-7.55,-39.23,-39.41,0,*58
1485140634.21,43150,9.63,73944.8,-7.57,-39.29,-39.35,0,*5B
1485140635.45,43151,9.63,73942.8,-7.53,-39.41,-39.65,0,*55
1485140636.73,43152,9.63,73944.0,-7.55,-39.23,-39.41,0,*52
1485140638.02,43153,9.63,73944.8,-7.55,-39.41,-39.59,0,*5E
1485140639.29,43154,9.63,73946.0,-7.55,-39.59,-39.65,0,*5F
1485140640.58,43155,9.63,73944.3,-7.55,-39.23,-39.29,0,*5B
1485140641.87,43156,9.63,73946.0,-7.55,-39.41,-39.59,0,*5B
1485140643.15,43157,9.63,73946.8,-7.55,-39.29,-39.59,0,*54
1485140644.4,43158,9.63,73946.5,-7.55,-39.47,-39.65,0,*5C
1485140645.69,43159,9.63,73950.3,-7.55,-39.15,-39.23,0,*58
1485140646.97,43160,9.63,73950.3,-7.55,-39.23,-39.41,0,*53
1485140648.23,43161,9.63,73946.5,-7.57,-39.53,-39.65,0,*51
1485140649.47,43162,9.63,73944.5,-7.55,-39.65,-39.65,0,*55
1485140650.73,43163,9.63,73946.8,-7.57,-39.71,-39.85,0,*5D
1485140652.02,43164,9.63,73946.5,-7.55,-39.41,-39.59,0,*5A
1485140653.27,43165,9.63,73948.3,-7.55,-39.23,-39.47,0,*50
1485140654.53,43166,9.63,73946.8,-7.55,-39.29,-39.47,0,*59
1485140655.76,43167,9.63,73948.8,-7.57,-39.47,-39.65,0,*52
1485140657.01,43168,9.63,73948.8,-7.55,-39.47,-39.65,0,*5F
1485140658.25,43169,9.63,73948.5,-7.57,-39.65,-39.65,0,*5C
1485140659.53,43170,9.63,73944.3,-7.57,-39.53,-39.71,0,*54
1485140660.77,43171,9.63,73944.0,-7.57,-39.47,-39.65,0,*55
1485140662.05,43172,9.63,73946.3,-7.57,-39.53,-39.71,0,*56
1485140663.31,43173,9.63,73946.0,-7.57,-39.09,-39.23,0,*5F
1485140664.56,43174,9.63,73944.0,-7.57,-39.09,-39.23,0,*58
1485140665.81,43175,9.63,73946.8,-7.57,-39.29,-39.47,0,*59
1485140667.04,43176,9.63,73946.5,-7.57,-39.35,-39.47,0,*57
1485140668.31,43177,9.63,73944.8,-7.57,-39.29,-39.53,0,*5E
1485140669.55,43178,9.63,73942.3,-7.57,-39.47,-39.65,0,*5C
1485140670.83,43179,9.63,73946.8,-7.55,-39.59,-39.65,0,*50
1485140672.08,43180,9.63,73942.3,-7.55,-39.41,-39.47,0,*5F
1485140673.36,43181,9.63,73944.0,-7.57,-39.53,-39.71,0,*5A
1485140674.64,43182,9.63,73944.8,-7.57,-39.23,-39.29,0,*53
1485140675.92,43183,9.63,73946.8,-7.57,-39.23,-39.23,0,*58
1485140677.2,43184,9.63,73946.5,-7.55,-39.23,-39.29,0,*57
1485140678.49,43185,9.63,73950.5,-7.55,-39.23,-39.29,0,*56
1485140679.75,43186,9.63,73944.5,-7.55,-39.41,-39.47,0,*59
1485140681.01,43187,9.63,73944.8,-7.55,-39.47,-39.59,0,*51
1485140682.29,43188,9.63,73946.5,-7.57,-39.29,-39.53,0,*5E
1485140683.58,43189,9.63,73944.8,-7.55,-39.41,-39.59,0,*59
1485140684.87,43190,9.63,73944.0,-7.55,-39.59,-39.59,0,*58
1485140686.13,43191,9.63,73944.0,-7.57,-39.53,-39.65,0,*5E
1485140687.41,43192,9.63,73944.0,-7.55,-39.29,-39.41,0,*54
1485140688.65,43193,9.63,73946.8,-7.57,-39.47,-39.65,0,*59
1485140689.92,43194,9.63,73946.5,-7.55,-39.47,-39.59,0,*53
1485140691.14,43195,9.63,73944.5,-7.57,-39.35,-39.47,0,*5A
1485140692.41,43196,9.63,73940.8,-7.55,-39.47,-39.59,0,*51
1485140693.68,43197,9.63,73946.5,-7.55,-39.59,-39.65,0,*50
1485140694.91,43198,9.63,73944.0,-7.57,-39.47,-39.47,0,*52
1485140696.16,43199,9.63,73948.3,-7.55,-39.41,-39.47,0,*57
1485140697.4,43200,9.63,73942.0,-7.57,-39.47,-39.65,0,*50
1485140698.65,43201,9.63,73948.0,-7.55,-39.47,-39.65,0,*53
1485140699.94,43202,9.63,73944.8,-7.55,-39.15,-39.29,0,*5F
1485140701.18,43203,9.63,73946.3,-7.57,-39.29,-39.35,0,*5E
1485140702.44,43204,9.63,73944.3,-7.57,-39.47,-39.71,0,*51
1485140703.69,43205,9.63,73944.8,-7.57,-39.29,-39.35,0,*58
1485140704.98,43206,9.63,73946.0,-7.55,-39.15,-39.23,0,*51
1485140706.26,43207,9.63,73944.8,-7.57,-39.03,-39.03,0,*57
1485140707.55,43208,9.63,73942.5,-7.55,-38.29,-38.29,0,*5A
1485140708.84,43209,9.63,73944.5,-7.55,-38.11,-38.29,0,*50
1485140710.11,43210,9.63,73940.3,-7.55,-38.49,-38.61,0,*59
1485140711.37,43211,9.63,73946.0,-7.55,-38.61,-38.67,0,*54
1485140712.61,43212,9.63,73944.5,-7.53,-38.49,-38.61,0,*5D
1485140713.86,43213,9.63,73944.8,-7.51,-38.43,-38.43,0,*54
1485140715.1,43214,9.63,73944.3,-7.51,-38.61,-38.55,0,*54
1485140716.37,43215,9.63,73942.3,-7.51,-38.79,-38.97,0,*52
1485140717.62,43216,9.63,73940.8,-7.53,-39.03,-39.03,0,*53
1485140718.86,43217,9.63,73944.0,-7.51,-38.97,-38.97,0,*50
1485140720.13,43218,9.63,73942.3,-7.51,-39.09,-39.15,0,*52
1485140721.39,43219,9.63,73940.8,-7.51,-39.09,-39.23,0,*56
1485140722.65,43220,9.63,73944.5,-7.53,-39.29,-39.41,0,*58
1485140723.94,43221,9.63,73944.5,-7.51,-39.15,-39.15,0,*55
1485140725.17,43222,9.63,73944.3,-7.53,-39.29,-39.47,0,*5C
1485140726.45,43223,9.63,73942.0,-7.51,-39.23,-39.41,0,*53
1485140727.71,43224,9.63,73940.5,-7.51,-39.35,-39.41,0,*53
1485140728.94,43225,9.63,73944.5,-7.53,-39.29,-39.47,0,*5B
1485140730.21,43226,9.63,73946.5,-7.51,-39.09,-39.15,0,*5F
1485140731.5,43227,9.63,73946.3,-7.51,-39.41,-39.59,0,*5A
1485140732.76,43228,9.63,73940.8,-7.53,-39.23,-39.41,0,*5A
1485140733.99,43229,9.63,73944.0,-7.51,-39.35,-39.35,0,*5D
1485140735.28,43230,9.63,73940.8,-7.51,-39.53,-39.59,0,*5F
1485140736.53,43231,9.63,73944.3,-7.53,-39.59,-39.65,0,*59
1485140737.81,43232,9.63,73942.8,-7.51,-39.53,-39.53,0,*57
1485140739.1,43233,9.63,73942.0,-7.51,-39.53,-39.71,0,*56
1485140740.39,43234,9.63,73946.5,-7.51,-39.41,-39.59,0,*58
1485140741.68,43235,9.63,73940.3,-7.51,-39.41,-39.59,0,*59
1485140742.95,43236,9.63,73942.0,-7.53,-39.41,-39.59,0,*58
1485140744.18,43237,9.63,73942.3,-7.53,-39.41,-39.47,0,*56
1485140745.43,43238,9.63,73940.5,-7.53,-39.23,-39.29,0,*55
1485140746.69,43239,9.63,73944.3,-7.51,-39.23,-39.35,0,*5B
1485140747.92,43240,9.63,73946.0,-7.53,-39.41,-39.47,0,*56
1485140749.2,43241,9.63,73944.0,-7.51,-39.23,-39.41,0,*57
1485140750.5,43242,9.63,73944.3,-7.51,-39.41,-39.59,0,*59
1485140751.78,43243,9.63,73942.5,-7.51,-39.41,-39.53,0,*52
1485140753.05,43244,9.63,73944.8,-7.51,-39.09,-39.23,0,*5E
1485140754.3,43245,9.63,73946.0,-7.53,-39.29,-39.41,0,*5B
1485140755.57,43246,9.63,73944.3,-7.51,-38.91,-39.09,0,*54
1485140756.86,43247,9.63,73944.0,-7.51,-39.15,-39.23,0,*50
1485140758.16,43248,9.63,73948.8,-7.51,-39.59,-39.79,0,*58
1485140759.41,43249,9.63,73946.3,-7.53,-39.59,-39.65,0,*56
1485140760.67,43250,9.63,73946.0,-7.53,-39.41,-39.59,0,*58
1485140761.97,43251,9.63,73944.5,-7.51,-39.71,-39.71,0,*52
1485140763.21,43252,9.63,73946.0,-7.53,-39.65,-39.79,0,*5E
1485140764.45,43253,9.63,73946.3,-7.53,-39.79,-39.85,0,*51
1485140765.69,43254,9.63,73944.5,-7.53,-39.79,-39.85,0,*56
1485140766.9,43255,9.63,73946.8,-7.53,-39.85,-39.85,0,*54
1485140768.16,43256,9.63,73946.0,-7.53,-39.97,-39.97,0,*57
1485140769.37,43257,9.63,73944.5,-7.53,-39.47,-39.65,0,*56
1485140770.62,43258,9.63,73946.8,-7.55,-39.47,-39.65,0,*5F
1485140771.9,43259,9.63,73944.5,-7.55,-39.41,-39.41,0,*5E
1485140773.17,43260,9.63,73948.5,-7.55,-39.65,-39.79,0,*59
1485140774.46,43261,9.63,73944.5,-7.55,-39.79,-39.97,0,*55
1485140775.73,43262,9.63,73950.3,-7.55,-39.79,-39.85,0,*55
1485140776.97,43263,9.63,73942.5,-7.53,-39.65,-39.79,0,*5C
1485140778.23,43264,9.63,73950.8,-7.57,-39.71,-39.85,0,*59
1485140779.5,43265,9.63,73946.8,-7.55,-39.59,-39.65,0,*5E
1485140780.75,43266,9.63,73946.8,-7.55,-39.47,-39.65,0,*52
1485140782.01,43267,9.63,73944.8,-7.53,-39.15,-39.15,0,*55
1485140783.3,43268,9.63,73946.5,-7.55,-39.23,-39.29,0,*56
1485140784.59,43269,9.63,73946.3,-7.55,-39.59,-39.79,0,*5F
1485140785.83,43270,9.63,73946.8,-7.55,-39.65,-39.85,0,*5B
1485140787.11,43271,9.63,73946.5,-7.55,-39.29,-39.41,0,*5A
1485140788.4,43272,9.63,73944.0,-7.55,-39.15,-39.23,0,*52
1485140789.64,43273,9.63,73946.3,-7.55,-38.85,-38.85,0,*56
1485140790.91,43274,9.63,73944.5,-7.53,-38.79,-38.79,0,*57
1485140792.17,43275,9.63,73942.3,-7.53,-39.15,-39.29,0,*59
1485140793.43,43276,9.63,73940.8,-7.53,-39.23,-39.23,0,*55
1485140794.69,43277,9.63,73940.3,-7.53,-39.29,-39.59,0,*53
1485140795.94,43278,9.63,73940.0,-7.53,-39.29,-39.41,0,*55
1485140797.18,43279,9.63,73940.0,-7.53,-39.47,-39.59,0,*55
1485140798.43,43280,9.63,73938.5,-7.53,-39.29,-39.29,0,*5C
1485140799.66,43281,9.63,73938.3,-7.53,-39.29,-39.47,0,*55
1485140800.91,43282,9.63,73940.8,-7.53,-39.29,-39.41,0,*50
1485140802.17,43283,9.63,73942.0,-7.53,-39.29,-39.41,0,*51
1485140803.43,43284,9.63,73936.8,-7.51,-39.35,-39.41,0,*59
1485140804.69,43285,9.63,73940.5,-7.51,-39.15,-39.35,0,*59
1485140805.93,43286,9.63,73940.0,-7.53,-39.47,-39.59,0,*55
1485140807.13,43287,9.63,73938.3,-7.53,-39.35,-39.35,0,*5B
1485140808.36,43288,9.63,73944.0,-7.53,-39.23,-39.47,0,*56
1485140809.61,43289,9.63,73940.3,-7.51,-39.23,-39.35,0,*50
1485140810.87,43290,9.63,73940.8,-7.53,-39.23,-39.29,0,*57
1485140812.14,43291,9.63,73940.0,-7.51,-39.35,-39.59,0,*54
1485140813.4,43292,9.63,73946.8,-7.53,-39.15,-39.23,0,*5A
1485140814.65,43293,9.63,73942.3,-7.53,-39.29,-39.41,0,*50
1485140815.92,43294,9.63,73940.5,-7.53,-39.15,-39.29,0,*56
1485140817.15,43295,9.63,73942.5,-7.53,-39.41,-39.47,0,*5E
1485140818.41,43296,9.63,73942.5,-7.51,-39.35,-39.53,0,*59
1485140819.69,43297,9.63,73942.3,-7.51,-39.23,-39.41,0,*5C
1485140820.98,43298,9.63,73940.5,-7.51,-39.41,-39.53,0,*54
1485140822.24,43299,9.63,73940.8,-7.51,-39.09,-39.23,0,*5E
1485140823.51,43300,9.63,73944.8,-7.53,-39.41,-39.59,0,*5C
1485140824.76,43301,9.63,73942.3,-7.53,-39.29,-39.41,0,*5A
1485140826.02,43302,9.63,73942.0,-7.51,-39.35,-39.41,0,*56
1485140827.28,43303,9.63,73944.8,-7.53,-39.41,-39.59,0,*5F
1485140828.57,43304,9.63,73944.0,-7.51,-39.41,-39.59,0,*5A
1485140829.83,43305,9.63,73940.8,-7.53,-39.23,-39.41,0,*54
1485140831.09,43306,9.63,73940.3,-7.51,-39.15,-39.35,0,*53
1485140832.38,43307,9.63,73942.0,-7.51,-39.23,-39.41,0,*54
1485140833.62,43308,9.63,73946.0,-7.53,-39.47,-39.59,0,*52
1485140834.87,43309,9.63,73946.3,-7.53,-39.59,-39.65,0,*53
1485140836.16,43310,9.63,73942.3,-7.51,-39.15,-39.15,0,*56
1485140837.42,43311,9.63,73944.3,-7.53,-39.23,-39.29,0,*5F
1485140838.68,43312,9.63,73942.3,-7.51,-39.15,-39.35,0,*56
1485140839.95,43313,9.63,73944.0,-7.51,-39.15,-39.35,0,*57
1485140841.19,43314,9.63,73940.5,-7.51,-39.09,-39.09,0,*52
1485140842.42,43315,9.63,73942.5,-7.53,-39.23,-39.47,0,*53
1485140843.69,43316,9.63,73938.5,-7.51,-39.09,-39.23,0,*58
1485140844.95,43317,9.63,73942.8,-7.51,-39.09,-39.23,0,*59
1485140846.19,43318,9.63,73940.3,-7.51,-38.97,-39.09,0,*58
1485140847.48,43319,9.63,73944.5,-7.51,-39.15,-39.41,0,*5E
1485140848.72,43320,9.63,73946.3,-7.49,-39.15,-39.35,0,*5E
1485140849.98,43321,9.63,73946.3,-7.49,-39.15,-39.41,0,*5C
1485140851.21,43322,9.63,73946.3,-7.49,-39.35,-39.53,0,*5E
1485140852.51,43323,9.63,73942.5,-7.51,-39.59,-39.53,0,*5C
1485140853.77,43324,9.63,73942.8,-7.49,-39.15,-39.41,0,*59
1485140855.04,43325,9.63,73942.8,-7.49,-39.41,-39.59,0,*50
1485140856.3,43326,9.63,73944.0,-7.49,-39.41,-39.53,0,*59
1485140857.56,43327,9.63,73944.8,-7.49,-39.53,-39.59,0,*51
1485140858.83,43328,9.63,73944.0,-7.49,-39.59,-39.79,0,*56
1485140860.09,43329,9.63,73944.8,-7.49,-39.23,-39.53,0,*52
1485140861.33,43330,9.63,73944.3,-7.49,-39.35,-39.59,0,*57
1485140862.62,43331,9.63,73942.8,-7.51,-39.41,-39.59,0,*5C
1485140863.89,43332,9.63,73942.8,-7.51,-39.15,-39.35,0,*54
1485140865.15,43333,9.63,73944.0,-7.51,-39.35,-39.41,0,*54
1485140866.44,43334,9.63,73944.5,-7.51,-39.53,-39.59,0,*5A
1485140867.74,43335,9.63,73940.5,-7.51,-39.59,-39.71,0,*5B
1485140868.99,43336,9.63,73940.5,-7.53,-39.23,-39.41,0,*54
1485140870.25,43337,9.63,73940.5,-7.51,-39.35,-39.41,0,*50
1485140871.51,43338,9.63,73940.0,-7.51,-39.35,-39.41,0,*5F
1485140872.8,43339,9.63,73940.0,-7.51,-39.15,-39.23,0,*58
1485140874.06,43340,9.63,73940.5,-7.51,-39.35,-39.41,0,*50
1485140875.32,43341,9.63,73942.5,-7.51,-39.23,-39.35,0,*55
1485140876.61,43342,9.63,73944.5,-7.51,-39.41,-39.53,0,*52
1485140877.9,43343,9.63,73936.8,-7.51,-39.53,-39.59,0,*5A
1485140879.19,43344,9.63,73940.8,-7.51,-39.53,-39.59,0,*5D
1485140880.43,43345,9.63,73942.3,-7.53,-39.59,-39.65,0,*5B
1485140881.72,43346,9.63,73938.3,-7.51,-39.53,-39.59,0,*5F
1485140882.97,43347,9.63,73940.5,-7.53,-39.59,-39.65,0,*59
1485140884.24,43348,9.63,73940.8,-7.51,-39.09,-39.15,0,*56
1485140885.47,43349,9.63,73942.3,-7.53,-39.41,-39.47,0,*5E
1485140886.77,43350,9.63,73940.5,-7.51,-39.59,-39.71,0,*58
1485140888.07,43351,9.63,73942.8,-7.51,-39.59,-39.71,0,*59
1485140889.33,43352,9.63,73940.5,-7.51,-39.35,-39.41,0,*53
1485140890.61,43353,9.63,73940.0,-7.51,-39.23,-39.41,0,*55
1485140891.85,43354,9.63,73942.0,-7.53,-39.41,-39.65,0,*52
1485140893.11,43355,9.63,73942.8,-7.51,-39.35,-39.41,0,*54
1485140894.36,43356,9.63,73942.3,-7.53,-39.59,-39.65,0,*59
1485140895.62,43357,9.63,73940.8,-7.53,-39.15,-39.41,0,*56
1485140896.88,43358,9.63,73946.8,-7.51,-39.35,-39.59,0,*50
1485140898.19,43359,9.63,73940.5,-7.51,-39.59,-39.59,0,*5B
1485140899.43,43360,9.63,73942.3,-7.53,-39.59,-39.65,0,*5C
1485140900.67,43361,9.63,73942.8,-7.53,-39.79,-39.85,0,*51
1485140901.97,43362,9.63,73946.5,-7.51,-39.79,-39.71,0,*5B
1485140903.21,43363,9.63,73946.5,-7.53,-39.79,-39.85,0,*53
1485140904.45,43364,9.63,73942.3,-7.53,-39.47,-39.59,0,*58
1485140905.66,43365,9.63,73940.0,-7.53,-39.65,-39.85,0,*58
1485140906.93,43366,9.63,73940.5,-7.53,-39.15,-39.23,0,*50
1485140908.15,43367,9.63,73944.8,-7.53,-39.29,-39.47,0,*5C
1485140909.37,43368,9.63,73946.5,-7.53,-39.47,-39.65,0,*5B
1485140910.63,43369,9.63,73940.3,-7.51,-39.35,-39.41,0,*5B
1485140911.92,43370,9.63,73942.3,-7.51,-39.41,-39.59,0,*59
1485140913.19,43371,9.63,73942.0,-7.53,-39.59,-39.79,0,*51